[[{"header":{"parameterUnit":"m.s-1","parameterCategory":1,"la1":30.2991,"la2":30.254,"lo1":-89.0895,"lo2":-89.0444,"dy":0.0017,"dx":0.0017,"nx":28,"ny":28,"refTime":"2023-11-01T21:00:00:Z","depth":0,"parameterNumber":2,"parameterNumberName":"U-component_of_WINDS"},"data":[0,0,0,0,0,0,0,0,0,0,0,0,0,0,0,0,0,0,0,0,0,0,0,0,0,0,0,0,0,0,0,0,0,0,0,0,0,0,0,0,0,0,0,0,0,0,0,0,0,0,0,0,0,0,0,0,0,0,-2.8597,-2.8598,0,-2.8706,-2.8707,-2.8708,-2.8647,-2.8644,-2.8641,-2.8638,-2.875,-2.8755,-2.8761,0,0,0,0,0,0,0,0,0,0,0,0,0,-2.8333,-2.8339,-2.8596,-2.8598,-2.8599,-2.8706,-2.8707,-2.8709,-2.8648,-2.8644,-2.8641,-2.8637,-2.8748,-2.8755,-2.8762,0,0,0,0,0,0,0,0,0,0,0,0,0,-2.8446,-2.834,-2.8596,-2.8582,-2.8581,-2.8706,-2.8707,-2.8709,-2.8649,-2.8644,-2.864,-2.8635,-2.8746,-2.8754,-2.8763,-2.8907,0,0,-2.8789,-2.8793,0,0,0,0,0,0,0,0,-2.8439,-2.8455,-2.8582,-2.8583,-2.8583,-2.8658,-2.8655,-2.8775,-2.865,-2.8623,-2.8638,-2.8633,-2.8723,-2.8733,-2.8764,-2.8912,-2.8917,-2.879,-2.8795,-2.8799,-2.8801,0,0,0,0,0,0,0,-2.8432,-2.845,-2.864,-2.8584,-2.8585,-2.8569,-2.858,-2.8678,-2.8697,-2.8625,-2.8621,-2.8635,-2.8722,-2.8755,-2.8766,-2.8918,-2.879,-2.8797,-2.8803,-2.8806,-2.9191,-2.9196,0,0,0,0,0,0,-2.8425,-2.8444,-2.8636,-2.8643,-2.8499,-2.8578,-2.859,-2.8639,-2.8696,-2.87,-2.8639,-2.8632,-2.8743,-2.8756,-2.8769,-2.8942,-2.8799,-2.8807,-2.8812,-2.9186,-2.9192,-2.9197,0,0,0,0,0,0,-2.842,-2.8443,-2.8632,-2.8543,-2.8566,-2.8587,-2.8642,-2.8643,-2.8676,-2.8706,-2.8709,-2.8669,-2.874,-2.8757,-2.8873,-2.8945,-2.8811,-2.8819,-2.918,-2.9188,-2.9195,-2.9289,0,0,0,0,0,0,-2.8412,-2.8441,-2.8497,-2.8544,-2.8571,-2.8734,-2.8647,-2.8649,-2.8692,-2.8684,-2.8736,-2.874,-2.8738,-2.8861,-2.8882,-2.8955,-2.8825,-2.9173,-2.9183,-2.9192,-2.928,-2.9299,-2.9316,0,0,0,0,0,-2.8403,-2.8519,-2.85,-2.8523,-2.864,-2.8739,-2.8754,-2.8749,-2.8698,-2.8753,-2.8772,-2.8738,-2.8934,-2.8873,-2.8896,-2.8973,-2.9169,-2.9181,-2.9191,-2.9272,-2.9295,-2.9315,0,0,0,0,0,0,-2.8478,-2.8525,-2.8504,-2.8639,-2.8685,-2.8728,-2.8798,-2.8774,-2.8836,-2.8826,-2.8817,-2.8829,-2.895,-2.8973,-2.8904,-2.9116,-2.9043,-2.906,-2.9097,-2.9119,-2.9137,-2.9129,-2.8833,0,0,0,0,0,-2.8511,-2.8587,-2.8623,-2.8738,-2.8763,-2.8777,-2.8819,-2.8812,-2.886,-2.8879,-2.8906,-2.8954,-2.9026,-2.9074,-2.9142,-2.9283,-2.9293,-2.9347,-2.9365,-2.9379,-2.9394,-2.947,-2.9495,-2.9234,-2.9234,-2.9234,0,0,-2.8578,-2.8613,-2.8661,-2.8754,-2.8789,-2.8869,-2.8794,-2.888,-2.8939,-2.8892,-2.9003,-2.9025,-2.9077,-2.9207,-2.9265,-2.923,-2.9468,-2.9394,-2.9405,-2.9412,-2.9484,-2.9509,-2.9531,-2.9242,-2.9241,-2.9239,0,0,-2.8741,-2.8775,-2.8875,-2.8912,-2.8966,-2.8975,-2.8999,-2.9046,-2.9059,-2.917,-2.9137,-2.9206,-2.9331,-2.9369,-2.9405,-2.9583,-2.9554,-2.9606,-2.97,-2.9774,-2.9795,-2.9813,-2.9876,-2.9899,-2.962,-2.962,-2.962,0,-2.8818,-2.8936,-2.8929,-2.9019,-2.9061,-2.9022,-2.9123,-2.9159,-2.9233,-2.9262,-2.9222,-2.9377,-2.941,-2.9548,-2.9591,-2.9622,-2.9649,-2.96,-2.9792,-2.981,-2.9827,-2.9888,-2.9912,-2.9626,-2.9626,-2.9625,-2.9624,0,-2.9028,-2.911,-2.9184,-2.9257,-2.9307,-2.9402,-2.9409,-2.9461,-2.9449,-2.9461,-2.9576,-2.9613,-2.9688,-2.972,-2.9709,-2.9857,-2.9833,-2.9793,-2.972,-2.9858,-2.9915,-2.9938,-2.9635,-2.9633,-2.9631,-2.9629,0,0,-2.9242,-2.931,-2.9337,-2.937,-2.9427,-2.949,-2.9583,-2.9657,-2.9701,-2.9754,-2.9831,-2.9938,-2.99,-2.9941,-2.9934,-3.0,-3.0139,-2.9951,-2.9952,-2.9985,-3.0304,-3.0334,-3.0361,-3.012,-3.0124,-3.0128,-3.0299,0,-2.9409,-2.9572,-2.9568,-2.972,-2.9796,-2.976,-2.9841,-2.9885,-2.9899,-2.9965,-2.9981,-3.0057,-3.0002,-3.0026,-3.009,-3.0109,-3.0203,-3.0096,-3.0192,-3.0195,-3.018,-3.0391,-3.0423,-3.0583,-3.0322,-3.0325,-3.0328,0,-2.9626,-2.9686,-2.9845,-2.9891,-2.9923,-2.9996,-3.0063,-3.0127,-3.0176,-3.0182,-3.0228,-3.021,-3.0304,-3.0229,-3.0358,-3.0286,-3.0325,-3.034,-3.0346,-3.0355,-3.027,-3.0405,-3.0634,-3.0659,-3.0363,-3.036,-3.0358,0,-2.9766,-2.9886,-2.9997,-3.0026,-3.0083,-3.0135,-3.0161,-3.0205,-3.025,-3.0309,-3.0337,-3.0406,-3.0444,-3.0498,-3.0499,-3.0444,-3.063,-3.0555,-3.0637,-3.0638,-3.0678,-3.0676,-3.0917,-3.0703,-3.0703,-3.0703,-3.0702,0,-2.9953,-3.0052,-3.0061,-3.0129,-3.0239,-3.0233,-3.0342,-3.0363,-3.0403,-3.0474,-3.0447,-3.0514,-3.0513,-3.0581,-3.0583,-3.069,-3.0707,-3.0714,-3.0714,-3.0717,-3.0716,-3.0742,-3.0731,-3.0709,-3.0708,-3.0706,-3.0705,0,-3.0129,-3.0139,-3.0257,-3.0301,-3.0314,-3.0393,-3.0431,-3.0495,-3.0507,-3.0598,-3.0619,-3.0638,-3.0717,-3.0724,-3.0816,-3.0817,-3.0946,-3.0934,-3.093,-3.0928,-3.1011,-3.1003,-3.1277,-3.1313,-3.1076,-3.1078,-3.108,0,-3.0247,-3.0323,-3.0375,-3.0421,-3.045,-3.0525,-3.057,-3.0568,-3.0616,-3.0677,-3.0735,-3.0812,-3.0873,-3.1001,-3.1023,-3.1093,-3.1081,-3.1173,-3.1092,-3.1093,-3.1083,-3.1079,-3.1086,-3.1189,-3.1191,-3.1193,-3.1195,0,-3.0458,-3.0459,-3.0526,-3.0595,-3.065,-3.0704,-3.0754,-3.0794,-3.0797,-3.0853,-3.0934,-3.0981,-3.1075,-3.1152,-3.1221,-3.1247,-3.1222,-3.122,-3.1243,-3.1247,-3.1242,-3.1246,-3.0973,-3.1214,-3.1212,-3.1211,-3.121,-3.1209,-3.0608,-3.0674,-3.0721,-3.0796,-3.0834,-3.0882,-3.0945,-3.0965,-3.1032,-3.1109,-3.1103,-3.1193,-3.1239,-3.1329,-3.1361,-3.143,-3.14,-3.1433,-3.1441,-3.1449,-3.1458,-3.1231,-3.1443,-3.1442,-3.1442,-3.1441,-3.1441,0,-3.0817,-3.0846,-3.0915,-3.0987,-3.1046,-3.1018,-3.1072,-3.1123,-3.1203,-3.1249,-3.1309,-3.1403,-3.1477,-3.1504,-3.1576,-3.1627,-3.1617,-3.1646,-3.1642,-3.1649,-3.1481,-3.1454,-3.1652,-3.1652,-3.1652,-3.1652,-3.1652,-3.1652,-3.0933,-3.1042,-3.1049,-3.1176,-3.1203,-3.1291,-3.1325,-3.1369,-3.1405,-3.151,-3.1572,-3.1589,-3.1628,-3.1703,-3.1769,-3.1776,-3.1803,-3.1837,-3.1838,-3.1682,-3.166,-3.164,-3.1615,-3.1843,-3.1843,-3.2,-3.2001,-3.2002]},{"header":{"parameterUnit":"m.s-1","parameterCategory":1,"la1":30.2991,"la2":30.254,"lo1":-89.0895,"lo2":-89.0444,"dy":0.0017,"dx":0.0017,"nx":28,"ny":28,"refTime":"2023-11-01T21:00:00:Z","depth":0,"parameterNumber":3,"parameterNumberName":"V-component_of_WINDS"},"data":[0,0,0,0,0,0,0,0,0,0,0,0,0,0,0,0,0,0,0,0,0,0,0,0,0,0,0,0,0,0,0,0,0,0,0,0,0,0,0,0,0,0,0,0,0,0,0,0,0,0,0,0,0,0,0,0,0,0,-2.8529,-2.8529,0,-2.8559,-2.856,-2.856,-2.8596,-2.8597,-2.8597,-2.8598,-2.8625,-2.8625,-2.8625,0,0,0,0,0,0,0,0,0,0,0,0,0,-2.8496,-2.8496,-2.8529,-2.8529,-2.853,-2.8559,-2.856,-2.856,-2.8596,-2.8597,-2.8598,-2.8598,-2.8625,-2.8625,-2.8625,0,0,0,0,0,0,0,0,0,0,0,0,0,-2.8516,-2.8496,-2.8529,-2.8551,-2.8554,-2.8559,-2.856,-2.856,-2.8596,-2.8597,-2.8598,-2.8599,-2.8625,-2.8625,-2.8625,-2.861,0,0,-2.8626,-2.8626,0,0,0,0,0,0,0,0,-2.8515,-2.8518,-2.8548,-2.855,-2.8553,-2.8575,-2.8558,-2.8577,-2.8596,-2.858,-2.8598,-2.8599,-2.8607,-2.8609,-2.8613,-2.8611,-2.8612,-2.8626,-2.8626,-2.8626,-2.8626,0,0,0,0,0,0,0,-2.8514,-2.8517,-2.8541,-2.8548,-2.8551,-2.8558,-2.8562,-2.8562,-2.8588,-2.8581,-2.8584,-2.8587,-2.8609,-2.8612,-2.8614,-2.8613,-2.8626,-2.8626,-2.8626,-2.8627,-2.8595,-2.8594,0,0,0,0,0,0,-2.851,-2.8515,-2.854,-2.8542,-2.8536,-2.8558,-2.8562,-2.8567,-2.8588,-2.8593,-2.8587,-2.8589,-2.8611,-2.8613,-2.8615,-2.8595,-2.8626,-2.8627,-2.8627,-2.8596,-2.8595,-2.8593,0,0,0,0,0,0,-2.8509,-2.8512,-2.8539,-2.8529,-2.8533,-2.8558,-2.8562,-2.8567,-2.8571,-2.8593,-2.8597,-2.8586,-2.8612,-2.8614,-2.861,-2.8596,-2.8627,-2.8627,-2.8597,-2.8595,-2.8594,-2.8556,0,0,0,0,0,0,-2.8508,-2.8511,-2.8507,-2.8529,-2.8534,-2.8535,-2.8562,-2.8567,-2.8572,-2.8575,-2.8593,-2.8597,-2.8613,-2.8609,-2.861,-2.8597,-2.8627,-2.8598,-2.8596,-2.8594,-2.8559,-2.8554,-2.8549,0,0,0,0,0,-2.8507,-2.8496,-2.8507,-2.851,-2.853,-2.8535,-2.8537,-2.8558,-2.8571,-2.8565,-2.8579,-2.8596,-2.8598,-2.8609,-2.861,-2.8597,-2.8599,-2.8597,-2.8595,-2.8561,-2.8555,-2.855,0,0,0,0,0,0,-2.8471,-2.8499,-2.8512,-2.8508,-2.8519,-2.8541,-2.8535,-2.8551,-2.8557,-2.856,-2.8584,-2.8587,-2.8579,-2.8588,-2.8599,-2.858,-2.8601,-2.8599,-2.8575,-2.8569,-2.8564,-2.8561,-2.8627,0,0,0,0,0,-2.8463,-2.8467,-2.849,-2.8484,-2.8489,-2.8511,-2.8514,-2.8529,-2.854,-2.8544,-2.8558,-2.8567,-2.8569,-2.857,-2.8574,-2.8561,-2.8563,-2.8552,-2.8547,-2.8543,-2.854,-2.853,-2.8524,-2.8586,-2.8586,-2.8586,0,0,-2.8446,-2.8462,-2.8462,-2.8477,-2.8488,-2.8488,-2.8515,-2.8515,-2.8515,-2.8544,-2.854,-2.855,-2.8561,-2.8551,-2.8548,-2.8559,-2.8524,-2.854,-2.8537,-2.8536,-2.8527,-2.8521,-2.8515,-2.8584,-2.8585,-2.8585,0,0,-2.8415,-2.8429,-2.8423,-2.8432,-2.8447,-2.8461,-2.846,-2.8479,-2.8487,-2.8484,-2.8504,-2.8503,-2.8508,-2.8514,-2.8517,-2.8485,-2.8499,-2.8485,-2.8459,-2.8449,-2.8444,-2.8439,-2.8424,-2.8418,-2.8483,-2.8483,-2.8483,0,-2.8391,-2.8395,-2.8419,-2.8417,-2.8421,-2.8448,-2.8441,-2.8448,-2.8463,-2.8464,-2.8476,-2.8479,-2.8489,-2.8479,-2.8471,-2.8474,-2.847,-2.8482,-2.8443,-2.8439,-2.8435,-2.842,-2.8415,-2.8481,-2.8481,-2.8481,-2.8481,0,-2.8363,-2.8365,-2.8359,-2.8372,-2.8376,-2.8371,-2.8392,-2.8392,-2.8405,-2.8417,-2.8411,-2.8424,-2.8428,-2.8427,-2.8441,-2.8418,-2.8423,-2.8439,-2.8459,-2.8427,-2.8413,-2.8408,-2.8478,-2.8478,-2.8479,-2.8479,0,0,-2.8312,-2.8336,-2.8333,-2.8338,-2.8355,-2.8355,-2.835,-2.8355,-2.8353,-2.8362,-2.8356,-2.8358,-2.8371,-2.8375,-2.8389,-2.838,-2.8348,-2.8396,-2.8397,-2.8383,-2.8318,-2.8303,-2.8297,-2.8358,-2.8358,-2.8357,-2.8315,0,-2.8281,-2.8276,-2.8295,-2.8283,-2.8282,-2.8307,-2.8302,-2.831,-2.832,-2.8319,-2.833,-2.8329,-2.8349,-2.8351,-2.8343,-2.8353,-2.8334,-2.8357,-2.8349,-2.8349,-2.8342,-2.829,-2.8276,-2.8237,-2.8311,-2.831,-2.8309,0,-2.8246,-2.8251,-2.8239,-2.8253,-2.8253,-2.8249,-2.8253,-2.8253,-2.8261,-2.8269,-2.8271,-2.8287,-2.828,-2.8301,-2.8289,-2.8304,-2.8301,-2.8306,-2.8304,-2.8302,-2.8325,-2.8283,-2.8225,-2.8217,-2.8302,-2.8302,-2.8303,0,-2.8204,-2.8209,-2.8202,-2.8205,-2.8222,-2.8218,-2.8224,-2.8233,-2.8234,-2.8237,-2.8236,-2.8238,-2.8238,-2.8238,-2.8252,-2.8267,-2.8236,-2.826,-2.8239,-2.8239,-2.823,-2.823,-2.8167,-2.8234,-2.8234,-2.8234,-2.8234,0,-2.8167,-2.8158,-2.8183,-2.8178,-2.8167,-2.8188,-2.8175,-2.8184,-2.8191,-2.8186,-2.8207,-2.8201,-2.8223,-2.8218,-2.8229,-2.8214,-2.8215,-2.8219,-2.8221,-2.8215,-2.8214,-2.8211,-2.8213,-2.8233,-2.8233,-2.8233,-2.8234,0,-2.8119,-2.8136,-2.8128,-2.8144,-2.8148,-2.8138,-2.8151,-2.8145,-2.8156,-2.8148,-2.8148,-2.8164,-2.8159,-2.8174,-2.8172,-2.8179,-2.8156,-2.8165,-2.8153,-2.8155,-2.8131,-2.8132,-2.8062,-2.8052,-2.8129,-2.8129,-2.8128,0,-2.8093,-2.8086,-2.81,-2.8098,-2.8103,-2.8101,-2.8101,-2.812,-2.8119,-2.8125,-2.8117,-2.8114,-2.8113,-2.8103,-2.8113,-2.811,-2.8116,-2.8092,-2.8116,-2.8108,-2.8111,-2.8109,-2.8107,-2.8086,-2.8085,-2.8085,-2.8084,0,-2.8043,-2.8051,-2.8051,-2.8052,-2.8051,-2.8054,-2.8057,-2.8054,-2.8074,-2.8071,-2.8066,-2.8064,-2.8061,-2.8056,-2.8054,-2.8058,-2.8072,-2.8077,-2.8071,-2.8063,-2.8054,-2.8054,-2.8136,-2.8078,-2.8078,-2.8079,-2.8079,-2.8079,-2.8002,-2.7996,-2.8003,-2.8001,-2.8006,-2.8007,-2.8001,-2.801,-2.8007,-2.8006,-2.8017,-2.8009,-2.8013,-2.8012,-2.8014,-2.8006,-2.8016,-2.8009,-2.8007,-2.8003,-2.7997,-2.8058,-2.8006,-2.8006,-2.8006,-2.8007,-2.8007,0,-2.795,-2.7956,-2.7954,-2.7957,-2.7954,-2.797,-2.7973,-2.7968,-2.7961,-2.7964,-2.7961,-2.7953,-2.7947,-2.7956,-2.7951,-2.7942,-2.7948,-2.7939,-2.7938,-2.7938,-2.7991,-2.7994,-2.7934,-2.7934,-2.7934,-2.7934,-2.7934,-2.7934,-2.7923,-2.7911,-2.7919,-2.7907,-2.7912,-2.7905,-2.7904,-2.7904,-2.7906,-2.7896,-2.7892,-2.7898,-2.7901,-2.7896,-2.7889,-2.7892,-2.7887,-2.7875,-2.7879,-2.7928,-2.7935,-2.7941,-2.7945,-2.7875,-2.7875,-2.7826,-2.7826,-2.7825]}]]